• In Romania
  • List of Countries
  • For 7 days
  • Water Temperature
  • Satellite Maps
  • Weather Map
  • Weather Widgets
  • user-avatar
    Login

    Hourly Weather Salzburg

    Today, 22 February, Wednesday

    Time Temperature Precipitation Wind Pressure Humidity
    00:00 -2°C° 0.7 mm 2 mps 624 mmHg 97%
    01:00 -2°C° 0.7 mm 2 mps 624 mmHg 97%
    02:00 -2°C° 0.6 mm 2 mps 624 mmHg 97%
    03:00 -2°C° 0.6 mm 2 mps 624 mmHg 97%
    04:00 -2°C° 0.6 mm 2 mps 623 mmHg 96%
    05:00 -2°C° 0.3 mm 2 mps 623 mmHg 96%
    06:00 -2°C° 0.3 mm 2 mps 623 mmHg 95%
    07:00 -3°C° 0.3 mm 2 mps 622 mmHg 95%
    08:00 -2°C° 0.1 mm 2 mps 623 mmHg 95%
    09:00 -1°C° 0.1 mm 2 mps 623 mmHg 95%
    10:00 +1°C° 0.1 mm 2 mps 623 mmHg 95%
    11:00 +1°C° 0 mm 2 mps 623 mmHg 95%
    12:00 +2°C° 0 mm 2 mps 623 mmHg 94%
    13:00 +2°C° 0 mm 2 mps 623 mmHg 94%
    14:00 +2°C° 0 mm 2 mps 623 mmHg 94%
    15:00 +2°C° 0 mm 2 mps 622 mmHg 94%
    16:00 +1°C° 0 mm 2 mps 622 mmHg 95%
    17:00 +1°C° 0 mm 2 mps 622 mmHg 95%
    18:00 -1°C° 0 mm 2 mps 622 mmHg 95%
    19:00 -2°C° 0 mm 2 mps 622 mmHg 95%
    20:00 -3°C° 0 mm 2 mps 622 mmHg 94%
    21:00 -3°C° 0 mm 2 mps 621 mmHg 92%
    22:00 -4°C° 0 mm 2 mps 621 mmHg 91%
    23:00 -4°C° 0 mm 2 mps 621 mmHg 90%

    Tomorrow, 23 February, Thursday

    Time Temperature Precipitation Wind Pressure Humidity
    00:00 -4°C° 0 mm 2 mps 621 mmHg 89%
    01:00 -5°C° 0 mm 2 mps 621 mmHg 88%
    02:00 -5°C° 0 mm 2 mps 620 mmHg 87%
    03:00 -5°C° 0 mm 2 mps 620 mmHg 87%
    04:00 -5°C° 0 mm 2 mps 620 mmHg 86%
    05:00 -5°C° 0 mm 2 mps 620 mmHg 85%
    06:00 -5°C° 0 mm 2 mps 620 mmHg 84%
    07:00 -5°C° 0 mm 2 mps 620 mmHg 83%
    08:00 -4°C° 0 mm 2 mps 620 mmHg 84%
    09:00 -2°C° 0 mm 2 mps 621 mmHg 85%
    10:00 +1°C° 0 mm 2 mps 621 mmHg 86%
    11:00 +2°C° 0 mm 2 mps 621 mmHg 85%
    12:00 +2°C° 0 mm 2 mps 620 mmHg 85%
    13:00 +3°C° 0 mm 2 mps 620 mmHg 85%
    14:00 +3°C° 0 mm 2 mps 619 mmHg 87%
    15:00 +2°C° 0 mm 2 mps 619 mmHg 89%
    16:00 +2°C° 0 mm 2 mps 618 mmHg 91%
    17:00 0°C° 0 mm 3 mps 618 mmHg 91%
    18:00 -1°C° 0 mm 3 mps 618 mmHg 92%
    19:00 -2°C° 0 mm 3 mps 617 mmHg 93%
    20:00 -4°C° 0 mm 3 mps 617 mmHg 92%
    21:00 -4°C° 0 mm 3 mps 617 mmHg 92%
    22:00 -4°C° 0 mm 3 mps 617 mmHg 91%
    23:00 -4°C° 0 mm 3 mps 616 mmHg 91%

    Day after tomorrow, 24 February, Friday

    Time Temperature Precipitation Wind Pressure Humidity
    00:00 -4°C° 0 mm 3 mps 616 mmHg 91%
    01:00 -4°C° 0 mm 3 mps 616 mmHg 91%
    02:00 -4°C° 0.2 mm 2 mps 616 mmHg 92%
    03:00 -4°C° 0.2 mm 2 mps 616 mmHg 93%
    04:00 -4°C° 0.2 mm 2 mps 616 mmHg 94%
    05:00 -4°C° 0.6 mm 2 mps 616 mmHg 94%
    06:00 -4°C° 0.6 mm 2 mps 617 mmHg 95%
    07:00 -4°C° 0.6 mm 2 mps 617 mmHg 96%
    08:00 -4°C° 0.7 mm 2 mps 618 mmHg 95%
    09:00 -4°C° 0.7 mm 2 mps 618 mmHg 95%
    10:00 -5°C° 0.7 mm 3 mps 619 mmHg 94%
    11:00 -4°C° 0.5 mm 2 mps 619 mmHg 93%
    12:00 -4°C° 0.5 mm 2 mps 619 mmHg 92%
    13:00 -4°C° 0.5 mm 2 mps 619 mmHg 92%
    14:00 -4°C° 0.3 mm 2 mps 619 mmHg 92%
    15:00 -4°C° 0.3 mm 2 mps 619 mmHg 92%
    16:00 -4°C° 0.3 mm 2 mps 619 mmHg 92%
    17:00 -5°C° 0.3 mm 2 mps 619 mmHg 94%
    18:00 -5°C° 0.3 mm 2 mps 620 mmHg 95%
    19:00 -6°C° 0.3 mm 2 mps 620 mmHg 96%
    20:00 -6°C° 0.4 mm 2 mps 621 mmHg 96%
    21:00 -6°C° 0.4 mm 2 mps 621 mmHg 96%
    22:00 -7°C° 0.4 mm 2 mps 622 mmHg 96%
    23:00 -7°C° 0.3 mm 2 mps 622 mmHg 96%

    25 February, Saturday

    Time Temperature Precipitation Wind Pressure Humidity
    00:00 -7°C° 0.3 mm 2 mps 623 mmHg 96%
    01:00 -7°C° 0.3 mm 2 mps 623 mmHg 96%
    02:00 -8°C° 0.2 mm 2 mps 623 mmHg 96%
    03:00 -8°C° 0.2 mm 2 mps 623 mmHg 96%
    04:00 -8°C° 0.2 mm 2 mps 623 mmHg 96%
    05:00 -9°C° 0.1 mm 2 mps 624 mmHg 96%
    06:00 -9°C° 0.1 mm 2 mps 624 mmHg 96%
    07:00 -9°C° 0.1 mm 2 mps 624 mmHg 96%
    08:00 -8°C° 0 mm 2 mps 625 mmHg 94%
    09:00 -7°C° 0 mm 2 mps 625 mmHg 92%
    10:00 -6°C° 0 mm 2 mps 626 mmHg 90%
    11:00 -3°C° 0 mm 1 mps 626 mmHg 88%
    12:00 -2°C° 0 mm 1 mps 626 mmHg 86%
    13:00 -1°C° 0 mm 1 mps 627 mmHg 84%
    14:00 -1°C° 0 mm 1 mps 626 mmHg 85%
    15:00 -2°C° 0 mm 0 mps 626 mmHg 87%
    16:00 -2°C° 0 mm 0 mps 626 mmHg 88%
    17:00 -3°C° 0 mm 1 mps 625 mmHg 89%
    18:00 -6°C° 0 mm 1 mps 624 mmHg 89%
    19:00 -9°C° 0 mm 1 mps 623 mmHg 90%
    20:00 -8°C° 0 mm 1 mps 623 mmHg 88%
    21:00 -7°C° 0 mm 1 mps 624 mmHg 85%
    22:00 -8°C° 0 mm 2 mps 624 mmHg 83%
    23:00 -8°C° 0 mm 2 mps 624 mmHg 83%

    26 February, Sunday

    Time Temperature Precipitation Wind Pressure Humidity
    00:00 -7°C° 0 mm 2 mps 624 mmHg 82%
    01:00 -7°C° 0 mm 2 mps 624 mmHg 81%
    02:00 -7°C° 0 mm 2 mps 624 mmHg 81%
    03:00 -6°C° 0 mm 2 mps 624 mmHg 80%
    04:00 -4°C° 0 mm 1 mps 624 mmHg 79%
    05:00 -4°C° 0 mm 1 mps 624 mmHg 77%
    06:00 -3°C° 0 mm 1 mps 624 mmHg 75%
    07:00 -3°C° 0 mm 1 mps 624 mmHg 73%
    08:00 -1°C° 0 mm 1 mps 625 mmHg 77%
    09:00 +1°C° 0 mm 1 mps 626 mmHg 81%
    10:00 +2°C° 0 mm 1 mps 627 mmHg 86%
    11:00 +3°C° 0 mm 1 mps 627 mmHg 84%
    12:00 +3°C° 0 mm 1 mps 627 mmHg 83%
    13:00 +4°C° 0 mm 1 mps 627 mmHg 82%
    14:00 +3°C° 0 mm 1 mps 627 mmHg 85%
    15:00 +3°C° 0 mm 1 mps 626 mmHg 88%
    16:00 +2°C° 0 mm 0 mps 626 mmHg 91%
    17:00 -1°C° 0 mm 0 mps 625 mmHg 90%
    18:00 -3°C° 0 mm 1 mps 624 mmHg 90%
    19:00 -7°C° 0 mm 1 mps 623 mmHg 90%
    20:00 -6°C° 0 mm 1 mps 623 mmHg 87%
    21:00 -6°C° 0 mm 1 mps 623 mmHg 85%
    22:00 -4°C° 0 mm 1 mps 624 mmHg 82%
    23:00 -4°C° 0 mm 1 mps 624 mmHg 83%

    27 February, Monday

    Time Temperature Precipitation Wind Pressure Humidity
    00:00 -5°C° 0 mm 2 mps 624 mmHg 84%
    01:00 -5°C° 0 mm 2 mps 624 mmHg 85%
    02:00 -5°C° 0 mm 2 mps 624 mmHg 85%
    03:00 -5°C° 0 mm 2 mps 624 mmHg 86%
    04:00 -5°C° 0 mm 2 mps 623 mmHg 87%
    05:00 -5°C° 0 mm 2 mps 623 mmHg 87%
    06:00 -5°C° 0 mm 2 mps 623 mmHg 86%
    07:00 -5°C° 0 mm 2 mps 623 mmHg 86%
    08:00 -3°C° 0 mm 2 mps 624 mmHg 86%
    09:00 -1°C° 0 mm 2 mps 625 mmHg 85%
    10:00 +3°C° 0 mm 1 mps 625 mmHg 84%
    11:00 +3°C° 0 mm 1 mps 625 mmHg 84%
    12:00 +3°C° 0 mm 2 mps 625 mmHg 83%
    13:00 +4°C° 0 mm 2 mps 625 mmHg 83%
    14:00 +4°C° 0 mm 2 mps 624 mmHg 85%
    15:00 +3°C° 0 mm 2 mps 624 mmHg 87%
    16:00 +3°C° 0 mm 2 mps 623 mmHg 90%
    17:00 +2°C° 0 mm 2 mps 623 mmHg 91%
    18:00 -1°C° 0 mm 2 mps 622 mmHg 92%
    19:00 -3°C° 0 mm 2 mps 622 mmHg 94%
    20:00 -3°C° 0 mm 2 mps 622 mmHg 93%
    21:00 -3°C° 0 mm 2 mps 622 mmHg 92%
    22:00 -4°C° 0 mm 2 mps 621 mmHg 91%
    23:00 -4°C° 0 mm 2 mps 621 mmHg 91%
    Show more